Wind_Speed
15 14 10 0 1 1 2 1 3 4 3 2 3 2 6 4 2 4 19 19 28 27 23 22 21 21 22 23 25 23 22 21 21 19 18 17 15 14 12 11 11 9 10 9 8 9 9 8 8
21 17 3 1 1 1 3 1 6 3 5 10 7 6 5 4 3 9 14 24 25 27 24 23 23 21 22 22 22 21 20 19 19 18 17 15 14 13 10 10 10 8 8 8 8 9 8 8 7
18 5 3 3 2 0 3 3 5 9 8 3 4 5 3 3 9 14 19 29 27 25 24 24 24 21 20 20 20 19 17 17 17 15 14 13 12 11 9 9 9 8 8 7 8 8 7 7 7
8 0 1 2 2 3 3 6 13 9 4 6 12 8 5 12 13 11 31 29 27 26 25 24 22 21 19 18 18 17 16 15 14 13 12 11 10 9 8 7 7 7 7 7 7 8 7 6 6
3 1 3 2 3 2 1 10 7 6 4 6 2 4 7 3 10 31 29 29 28 27 24 24 22 21 19 18 17 15 15 14 13 12 11 10 9 8 7 6 6 5 6 6 7 8 7 6 6
2 2 3 2 3 5 2 9 7 7 7 9 9 8 4 18 28 26 29 29 27 26 25 23 22 20 18 17 16 15 14 12 12 11 9 9 8 7 6 4 3 4 4 6 7 7 7 6 5
3 2 2 3 3 4 4 5 7 7 10 7 8 5 6 14 23 29 28 28 26 24 23 23 22 19 18 16 15 14 13 12 11 10 9 8 7 6 4 3 2 2 4 6 6 7 7 6 5
3 2 1 5 2 4 7 5 10 7 3 9 11 7 9 15 25 25 27 28 25 24 23 23 23 21 20 17 15 14 13 12 11 9 8 6 5 3 1 2 3 3 3 5 7 5 4 5 5
1 4 4 3 5 3 9 5 5 5 10 4 5 6 13 29 26 24 24 24 24 24 24 24 24 23 21 19 16 14 12 12 11 9 7 5 4 3 1 2 4 6 4 5 4 3 2 2 4
3 3 7 6 5 6 12 7 10 4 10 2 6 14 29 29 27 24 22 22 23 23 26 25 25 24 22 21 19 17 14 13 12 10 8 6 3 2 3 1 1 3 3 1 1 0 1 2 3
5 6 5 4 5 9 13 9 7 10 8 7 16 22 23 27 23 23 23 23 26 26 26 28 27 25 24 23 22 19 17 15 14 12 10 8 5 3 3 3 2 1 2 1 1 0 1 2 3
4 11 6 7 4 8 12 10 8 12 4 8 20 27 24 21 20 24 23 24 25 27 27 31 29 28 26 25 23 21 19 17 16 13 11 9 7 6 4 5 4 3 2 1 2 1 1 2 1
7 10 6 10 6 12 9 15 13 14 4 16 18 22 23 19 23 25 25 25 28 29 31 34 32 30 29 26 24 23 21 20 16 15 13 12 10 7 6 7 7 5 6 4 3 1 1 1 2
4 12 15 7 9 9 13 8 6 9 12 17 21 20 20 21 25 23 23 24 27 31 33 34 34 32 30 29 26 25 22 20 18 16 15 14 12 10 6 7 9 6 5 3 4 1 2 2 2
5 6 3 8 8 6 7 3 12 5 15 18 20 17 17 19 25 25 27 26 28 31 32 34 35 33 31 30 29 26 23 20 19 18 17 16 13 11 7 8 8 7 5 7 5 1 1 3 1
3 1 1 1 8 6 13 13 17 14 18 18 20 17 17 17 25 28 28 28 28 26 32 35 35 35 34 32 30 27 25 22 21 21 18 17 13 12 12 10 10 10 8 8 7 4 2 2 4
5 4 5 5 10 5 9 7 16 19 20 19 18 18 17 16 20 26 28 28 29 33 34 34 35 34 35 33 32 28 24 22 21 22 20 20 18 16 15 13 10 9 8 7 6 4 4 4 2
6 4 4 5 2 4 9 13 5 21 22 22 20 18 18 18 22 29 29 29 30 33 35 35 35 35 34 33 32 29 26 22 19 18 18 16 17 19 19 15 10 9 9 9 7 5 3 1 3
5 4 4 2 2 4 7 6 9 16 16 19 20 20 19 21 22 26 27 28 29 31 34 36 35 36 34 35 33 31 29 25 21 17 16 16 18 19 20 17 12 10 10 9 7 5 5 2 1
5 5 8 4 6 2 4 8 10 17 23 24 22 20 22 19 17 21 26 28 30 34 39 39 41 40 39 38 37 32 32 30 26 22 21 18 19 20 23 21 17 13 12 11 8 8 6 4 2
5 13 6 5 4 2 4 6 7 12 2 12 15 19 17 18 19 18 25 31 33 34 38 42 45 44 43 41 35 30 28 28 29 28 26 22 21 19 21 22 19 15 13 13 10 11 9 5 4
9 6 6 7 4 4 3 5 5 13 20 16 15 17 18 19 17 15 21 28 35 39 38 39 38 40 43 42 36 34 29 25 30 34 30 26 23 21 20 21 21 18 15 15 14 12 9 7 7
8 8 9 6 6 2 3 1 6 10 14 17 18 19 20 21 19 20 20 35 39 37 38 40 42 43 43 46 43 40 31 34 35 32 27 25 24 22 20 19 22 20 16 15 15 15 12 9 9
8 4 6 5 4 7 10 9 5 8 19 20 17 20 21 21 22 21 29 33 31 31 32 35 38 42 43 45 46 40 35 32 33 29 25 26 26 24 22 22 24 22 18 17 16 16 13 11 11
7 8 2 2 3 11 8 8 14 10 16 22 25 25 24 23 22 21 21 20 29 32 35 36 38 38 41 44 45 44 43 40 39 36 29 27 27 26 26 25 26 24 21 19 17 18 15 14 14
9 9 6 8 4 7 7 9 7 11 11 18 20 24 21 20 21 23 23 26 31 36 37 35 37 39 41 43 45 46 44 40 41 40 35 32 30 29 26 26 27 26 22 21 20 20 18 16 14
6 11 11 5 2 2 5 6 6 5 11 14 19 17 19 21 22 24 25 31 33 34 39 40 39 40 39 43 45 43 43 40 38 41 39 37 32 30 27 27 29 28 26 24 22 23 21 19 17
10 9 4 1 6 6 5 4 6 10 13 14 9 16 19 19 22 23 22 28 34 37 40 40 41 42 45 45 43 44 46 46 44 43 41 41 37 33 32 26 29 31 29 28 26 25 23 21 19
4 6 3 6 6 7 0 6 8 10 14 18 19 17 18 18 20 22 22 31 35 34 34 40 40 39 40 40 40 40 39 40 41 44 44 41 39 35 34 31 30 34 33 31 30 29 27 25 22
21 9 7 6 8 6 4 7 4 10 11 14 14 14 12 13 18 20 22 22 28 33 34 37 38 38 41 41 41 42 41 40 41 45 46 43 40 38 36 35 35 35 37 35 35 34 32 30 27
Wind_Direction
149 152 155 198 256 168 258 119 105 115 91 1 64 117 116 44 50 137 141 130 145 146 149 143 130 128 129 129 132 133 130 127 126 122 120 117 119 111 104 100 95 96 94 90 89 88 95 113 112
156 155 166 101 62 10 312 183 124 147 111 116 88 96 53 70 76 117 122 144 151 150 149 146 139 133 131 133 134 132 127 126 126 125 123 123 118 112 112 104 101 87 83 84 85 87 91 105 116
151 166 118 112 99 344 300 66 110 126 151 90 102 56 73 89 115 139 144 147 146 148 149 150 143 139 136 134 134 131 128 128 129 126 125 118 115 116 110 102 97 82 72 76 85 90 95 106 123
155 345 99 70 306 255 211 115 140 146 82 61 116 87 86 115 136 157 150 149 146 147 150 149 146 143 140 139 137 135 130 132 134 131 125 119 118 116 106 96 88 79 70 77 87 90 90 99 116
278 252 72 27 281 240 221 125 154 157 92 119 107 101 104 84 149 142 152 151 148 148 150 151 153 150 147 146 146 140 136 142 140 134 129 123 117 113 107 95 83 77 66 72 81 90 97 102 113
21 246 37 16 330 317 79 141 136 105 105 120 103 97 91 134 135 148 153 154 151 151 154 154 161 157 156 155 153 151 147 149 144 140 137 129 118 113 107 96 82 76 68 77 79 85 91 94 104
105 55 192 288 291 301 155 131 119 132 141 125 142 97 115 146 147 152 158 160 158 156 159 162 165 166 167 165 165 163 162 160 155 152 149 141 128 116 102 85 77 79 83 84 87 88 87 82 73
117 94 291 212 223 275 140 131 128 137 111 113 142 158 159 171 153 152 162 166 166 165 168 170 172 173 178 176 175 174 176 171 166 165 159 148 139 123 82 33 42 46 86 104 104 96 74 67 51
91 78 279 264 187 212 144 121 141 92 137 176 173 138 146 154 149 147 153 165 172 175 176 179 179 181 185 185 183 185 187 182 178 177 176 173 166 151 118 56 52 52 73 78 96 116 104 50 84
124 158 219 233 212 176 161 131 144 112 156 179 100 112 141 152 154 155 163 172 176 179 183 187 188 188 190 192 191 198 194 194 192 192 190 191 193 212 231 231 86 92 97 91 149 70 183 79 75
184 217 223 277 210 163 162 159 152 141 206 200 159 146 153 156 162 166 175 179 181 184 187 192 194 194 195 199 200 202 203 202 202 203 204 205 210 225 233 223 222 193 201 198 356 267 89 104 46
218 240 250 290 220 160 188 150 181 173 215 177 162 153 155 167 171 175 180 183 183 184 191 196 199 198 200 204 205 206 207 208 211 211 212 218 226 237 236 237 222 217 230 276 239 201 63 67 117
237 249 171 231 165 184 145 196 175 205 102 132 150 157 162 169 177 184 184 185 187 191 195 199 200 202 205 207 209 211 210 212 214 219 218 221 226 237 258 261 230 234 249 240 237 274 267 114 115
211 252 258 243 241 172 170 199 152 193 132 137 157 171 171 175 179 180 184 189 191 196 199 201 203 206 208 210 211 214 214 215 221 227 227 225 230 240 261 260 242 247 256 263 205 275 2 158 193
266 277 250 197 213 190 138 159 222 149 147 155 167 179 182 186 182 187 190 192 195 200 200 204 206 208 211 213 214 216 217 220 223 222 223 228 231 240 259 251 223 236 250 226 219 242 264 285 339
318 97 78 207 181 201 149 218 220 165 160 170 175 181 191 196 192 193 191 197 199 198 201 207 210 211 213 216 218 218 222 226 231 232 229 235 238 239 238 245 242 246 253 240 227 227 271 229 174
340 231 197 306 188 135 169 235 218 171 172 173 185 184 193 198 203 200 199 197 198 204 207 207 210 213 215 217 222 222 224 227 237 245 240 238 238 238 236 245 252 247 236 239 225 251 249 258 317
202 209 239 230 206 153 196 247 193 176 176 180 184 188 193 200 206 198 199 199 200 205 210 209 210 213 215 216 220 221 224 229 241 240 224 226 230 229 235 238 246 237 239 223 230 251 202 315 338
189 205 215 233 232 159 218 238 195 180 184 185 188 188 195 207 202 201 199 198 197 202 207 209 209 212 213 214 217 221 224 227 229 223 215 222 224 228 231 236 237 235 232 230 243 235 223 281 326
189 229 254 305 263 168 255 233 188 182 197 193 186 191 198 205 194 200 201 198 199 201 207 208 212 212 213 214 214 216 222 225 224 223 219 226 227 231 227 230 232 236 236 233 234 229 231 277 222
207 216 186 206 343 276 106 309 170 213 215 204 203 197 204 205 199 198 196 200 201 202 204 208 211 212 214 215 214 215 221 225 224 227 226 224 225 236 234 234 230 235 234 236 236 227 228 229 185
214 177 156 164 129 218 142 265 249 204 208 202 199 202 201 211 210 202 205 204 203 206 207 209 209 209 214 216 213 212 211 213 224 230 231 229 228 231 234 233 231 234 237 238 235 227 232 209 194
218 151 188 163 191 175 231 38 259 172 208 215 210 210 206 206 205 201 201 207 209 207 205 206 208 210 212 214 214 215 211 220 229 236 229 224 225 227 237 239 232 230 235 240 230 222 225 220 213
161 102 54 48 112 242 216 186 236 183 211 217 219 218 213 208 210 209 205 211 212 210 206 205 205 208 209 212 213 214 213 216 223 226 220 221 225 231 237 240 231 231 234 233 231 221 223 224 216
145 113 301 290 199 239 181 190 228 211 205 207 212 217 213 207 209 211 210 197 204 202 203 201 202 206 206 210 213 213 217 217 223 225 223 223 225 232 236 236 227 228 231 230 227 222 222 220 217
182 153 163 204 209 228 125 226 242 192 213 215 220 217 214 210 210 212 211 207 201 201 201 199 202 206 204 207 212 215 217 217 223 226 226 227 228 231 236 228 225 226 228 227 226 225 226 221 218
192 194 178 81 268 42 221 297 312 183 205 211 222 217 214 210 210 213 213 209 207 203 201 200 201 206 204 206 209 211 213 213 218 226 228 229 230 230 232 229 224 225 226 224 225 225 226 222 224
167 150 150 12 196 238 276 248 219 195 202 209 221 216 222 210 211 215 215 213 209 206 202 202 204 204 205 207 206 209 213 217 219 225 228 229 230 231 230 228 227 227 225 222 223 226 228 226 227
129 181 128 153 162 206 291 254 207 206 215 208 213 211 213 209 209 212 213 211 207 205 200 202 202 203 204 205 205 207 210 213 214 222 229 230 230 231 229 230 233 229 226 221 222 226 229 227 226
214 188 149 146 222 247 167 245 245 227 202 202 228 225 218 205 209 209 212 206 201 199 197 198 202 203 204 203 203 205 209 208 211 220 228 231 229 228 230 230 234 232 226 224 223 224 227 226 226
Height
773 776 778 779 793 793 792 783 769 777 777 770 767 774 784 789 792 807 799 800 803 806 809 813 816 819 821 823 825 827 829 831 833 834 835 836 838 838 838 839 839 839 839 840 840 840 840 840 840
769 774 778 781 798 802 796 773 780 773 772 769 771 777 784 795 790 795 799 802 806 808 811 815 819 821 823 826 828 829 830 833 834 836 837 838 839 840 840 840 840 840 841 841 841 841 841 842 843
771 772 778 787 798 801 798 773 776 773 768 770 778 777 783 794 794 796 799 803 807 811 815 818 820 823 825 827 829 830 832 834 836 838 839 839 840 840 840 841 841 842 843 843 842 842 842 843 843
772 775 777 789 795 782 777 773 770 774 771 771 776 788 786 789 794 796 801 805 809 813 817 820 822 825 826 829 830 832 834 835 838 839 839 840 840 841 842 843 843 844 844 844 844 843 843 843 843
771 771 787 791 787 772 764 765 768 775 773 777 775 791 794 795 794 799 803 807 811 815 819 822 824 826 828 831 832 834 836 837 839 840 841 841 841 843 843 844 845 845 845 846 845 845 844 844 844
775 773 791 795 784 768 763 759 766 772 775 780 784 785 797 797 797 802 806 809 813 816 820 823 826 828 831 832 834 836 837 839 840 841 842 842 843 844 845 846 847 847 847 847 846 846 846 846 846
777 783 792 787 785 776 766 758 769 776 778 781 778 794 797 799 800 803 808 811 815 818 821 824 827 830 832 834 835 837 838 840 841 843 843 844 845 846 846 847 848 848 848 848 848 848 848 848 848
774 780 789 782 790 782 760 760 762 770 776 771 776 795 799 796 800 805 809 812 816 819 822 824 827 830 833 835 836 838 839 841 843 844 845 846 846 847 848 848 849 849 849 849 850 850 850 849 850
769 795 797 777 775 768 756 765 764 763 772 771 774 778 781 791 799 805 809 813 817 820 823 825 827 830 832 835 837 839 841 843 844 845 846 847 847 849 849 849 850 849 850 850 852 852 850 850 851
780 796 781 760 755 761 755 760 766 773 776 775 776 777 786 792 797 802 806 810 815 818 821 824 827 829 832 834 837 839 841 843 844 846 847 847 848 849 850 850 850 850 850 851 852 852 851 850 851
775 781 762 750 744 749 753 760 758 770 782 769 775 779 786 792 797 800 805 808 810 815 819 822 825 828 831 833 836 839 841 842 844 846 847 847 848 849 850 850 849 850 850 852 852 852 852 851 851
776 756 756 749 742 750 756 753 760 762 763 757 766 768 779 789 793 797 801 804 808 812 815 820 823 826 829 832 835 838 840 842 843 846 847 848 848 849 850 850 851 851 850 851 852 852 852 852 852
767 749 748 744 741 742 749 754 755 761 754 758 769 774 778 786 792 796 798 802 806 809 813 817 821 824 828 831 834 836 838 840 843 845 847 847 848 849 850 850 851 851 850 850 852 852 852 852 852
748 747 745 742 740 741 752 757 756 756 756 762 770 776 778 782 786 793 797 800 803 806 811 814 818 822 826 829 832 834 837 840 842 844 846 847 848 849 850 850 850 850 850 850 851 851 851 851 851
745 755 746 744 740 745 745 766 761 751 757 766 771 778 781 782 785 788 791 796 799 803 808 812 815 820 824 827 830 833 835 838 840 842 844 845 847 849 850 849 849 849 850 850 851 851 851 851 851
753 753 769 743 739 736 746 773 749 747 756 767 769 774 780 782 781 784 788 792 797 802 805 810 813 817 821 825 828 831 834 836 838 840 843 844 846 848 849 849 849 849 849 850 850 850 850 851 851
773 780 771 757 739 739 749 764 741 741 751 761 768 769 775 780 781 781 785 789 793 797 802 806 810 814 818 822 826 829 832 834 836 838 840 842 844 846 847 848 848 849 848 849 849 849 849 850 851
782 777 765 759 740 741 755 752 741 738 745 753 760 765 770 774 771 774 780 785 790 794 798 803 807 811 815 820 823 827 829 832 834 835 836 839 841 843 844 846 847 847 848 848 849 848 849 849 850
760 760 759 749 735 744 754 753 747 743 747 751 754 759 763 764 764 771 776 782 786 790 794 798 802 807 811 815 819 822 825 829 831 832 834 837 838 840 841 844 845 846 847 848 848 849 849 850 850
756 763 763 752 738 741 747 751 743 740 736 736 743 753 753 757 764 767 771 777 781 783 786 791 795 801 805 809 813 817 821 824 827 830 832 834 835 837 839 841 843 844 845 846 847 848 849 849 850
758 760 761 760 744 740 748 759 753 741 737 742 742 740 749 753 755 759 764 768 772 776 779 782 786 793 798 803 809 813 817 820 823 825 827 830 832 834 835 838 841 842 844 845 846 847 849 849 851
771 743 745 752 763 780 746 789 759 744 743 739 739 741 740 744 748 753 758 761 762 765 772 777 784 789 793 798 803 806 809 813 816 819 823 826 828 830 832 834 837 839 841 843 844 846 847 848 849
742 732 744 748 762 764 760 777 757 743 750 741 733 731 730 733 737 742 747 749 752 759 764 769 776 782 786 790 795 799 804 807 811 815 818 821 824 826 829 831 833 836 838 840 842 843 845 846 848
725 735 753 764 773 788 763 767 765 754 733 729 725 724 723 727 729 732 735 742 749 756 761 764 769 772 778 783 788 793 797 802 806 810 813 816 820 822 824 827 830 833 835 837 839 842 843 845 846
729 756 793 794 794 764 750 765 730 719 707 707 711 710 710 715 722 726 729 735 740 745 750 755 761 766 771 776 780 785 790 795 799 803 806 810 814 817 820 822 826 829 832 834 837 839 841 842 844
731 751 787 798 792 767 758 754 729 699 694 693 692 692 701 709 711 714 717 723 728 732 739 746 752 756 761 767 773 778 783 788 792 797 801 805 808 811 815 818 821 825 828 831 834 836 838 840 841
734 740 732 764 764 772 755 726 700 693 696 692 690 692 694 697 700 702 705 711 718 723 727 733 740 746 753 758 764 770 776 781 786 790 795 799 803 807 811 813 816 820 824 827 830 832 834 836 838
705 712 747 771 772 777 755 739 725 707 697 693 693 688 682 685 689 691 695 700 706 711 715 724 731 735 740 747 754 761 767 772 777 782 787 791 797 801 805 808 811 815 818 822 826 828 831 833 835
712 717 725 729 756 760 769 738 698 692 682 677 674 674 672 674 675 677 679 686 694 703 710 713 720 727 734 740 746 753 759 765 771 774 778 783 790 794 798 803 806 809 812 816 820 823 826 828 831
675 696 715 742 748 741 750 724 671 667 664 669 666 660 662 663 664 666 669 675 685 692 698 703 711 718 722 729 736 742 749 756 761 766 771 776 781 787 792 796 799 802 806 809 812 816 819 823 826